N0MQJ Weather Reports


time (UTC)temp
C
wind
direction
speed
KPH
gust
KPH
rain 1hr
cm
rain 24hr
cm
rain mn
cm
humidity
%
barometer
mb
20260505070004 2 55 0.0 0.0 0.00 0.00 0.00 83 1001.2
20260505064529 2 55 0.0 3.2 0.00 0.00 0.00 82 1001.1
20260505063013 3 51 0.0 0.0 0.00 0.00 0.00 79 1001.1
20260505061515 3 49 0.0 8.0 0.00 0.00 0.00 75 1001.1
20260505060055 4 18 0.0 8.0 0.00 0.00 0.00 71 1001.1
20260505054551 6 5 0.0 9.7 0.00 0.00 0.00 62 1001.1
20260505053017 6 360 0.0 8.0 0.00 0.00 0.00 51 1001.0
20260505051542 5 5 1.6 8.0 0.00 0.00 0.00 54 1000.9
20260505050141 5 5 0.0 9.7 0.00 0.00 0.00 57 1000.7
20260505041523 4 181 0.0 0.0 0.00 0.00 0.00 75 1000.8
20260505040035 4 182 0.0 0.0 0.00 0.00 0.00 75 1000.6
20260505034540 4 182 0.0 0.0 0.00 0.00 0.00 73 1000.3
20260505033031 4 182 0.0 0.0 0.00 0.00 0.00 75 1000.3
20260505031521 4 182 0.0 0.0 0.00 0.00 0.00 74 1000.6
20260505030027 4 183 1.6 8.0 0.00 0.00 0.00 74 1000.1
20260505024504 4 63 0.0 1.6 0.00 0.00 0.00 75 1000.0
20260505023056 4 61 0.0 0.0 0.00 0.00 0.00 74 999.6
20260505021556 4 61 0.0 0.0 0.00 0.00 0.00 73 999.2
20260505020013 5 59 0.0 0.0 0.00 0.00 0.00 68 999.3
20260505014510 6 38 0.0 8.0 0.00 0.00 0.00 62 999.2
20260505013013 7 20 0.0 11.3 0.00 0.00 0.00 51 999.0
20260505011558 7 10 1.6 9.7 0.00 0.00 0.00 50 998.9
20260505004542 7 17 0.0 14.5 0.00 0.00 0.00 56 998.6
20260505003047 7 11 0.0 29.0 0.00 0.00 0.00 54 998.8
20260505001548 7 315 1.6 17.7 0.00 0.00 0.00 57 998.9
20260505000012 7 283 1.6 17.7 0.00 0.00 0.00 60 998.9
20260504233105 8 284 3.2 17.7 0.00 0.00 0.00 56 998.6
20260504231543 10 255 3.2 11.3 0.00 0.00 0.00 47 998.5
20260504230154 10 332 1.6 14.5 0.00 0.00 0.00 44 998.7
20260504224529 10 246 0.0 12.9 0.00 0.00 0.00 46 998.4
20260504223034 8 294 0.0 8.0 0.00 0.00 0.00 53 998.4
20260504221536 10 311 4.8 29.0 0.00 0.00 0.00 49 998.6
20260504220038 11 271 3.2 27.4 0.00 0.00 0.00 43 998.7
20260504214517 12 278 8.0 24.1 0.00 0.00 0.00 39 998.7
20260504213101 11 281 1.6 20.9 0.00 0.00 0.00 41 998.9
20260504211600 11 346 4.8 16.1 0.00 0.00 0.00 42 999.1
20260504210023 11 280 1.6 14.5 0.00 0.00 0.00 44 999.3
20260504204518 11 5 3.2 20.9 0.00 0.00 0.00 41 999.4
20260504203039 12 349 6.4 20.9 0.00 0.00 0.00 34 999.2
20260504201543 13 337 1.6 12.9 0.00 0.00 0.00 31 999.1
20260504200004 12 252 3.2 16.1 0.00 0.00 0.00 33 999.3
20260504194507 12 269 4.8 14.5 0.00 0.00 0.00 32 999.2
20260504193023 12 9 4.8 22.5 0.00 0.00 0.00 37 999.3
20260504191536 12 275 3.2 19.3 0.00 0.00 0.00 41 999.8
20260504190003 10 273 4.8 20.9 0.00 0.00 0.00 41 1000.0
20260504184511 10 296 8.0 30.6 0.00 0.00 0.00 42 1000.3
20260504183038 11 5 0.0 14.5 0.00 0.00 0.00 30 1000.2
20260504181551 11 41 3.2 14.5 0.00 0.00 0.00 33 1000.4
20260504180155 11 15 0.0 8.0 0.00 0.00 0.00 35 1000.7
20260504174515 10 360 0.0 16.1 0.00 0.00 0.00 38 1000.7
20260504173102 11 11 1.6 14.5 0.00 0.00 0.00 34 1000.8
20260504171513 11 289 4.8 19.3 0.00 0.00 0.00 35 1001.1
20260504081507 3 342 0.0 0.0 0.00 0.00 0.00 47 1003.2